CZ-6A DEB

Satellite information

Favourite Embed

Satellite Type and Status

DEBRISIN ORBIT

Key statistics

Satellite CZ-6A DEB at a glance.

Uptime

495

Days in orbit

Revolutions

≈ 14.4

Per day

Orbit

LEO

Low Earth Orbit

Inclination

88.5

Latest

Satellite identification and parameters

Extended collection of information and parameters for CZ-6A DEB.

Object identification

Identified? True

Debris? True

Object name: CZ-6A DEB

International designator: 2024-140QK

Object number (NORAD): 61141

Object ID (CCSDS): 61141

Country: PEOPLES REPUBLIC OF CHINA (PRC)

Current information (Y/N): Y

RCS size: SMALL

Orbital parameters

Period: 100.001 minutes

Inclination: 88.4713 deg

SMA: 7136.678 km

Apoapsis: 825.864 km

Periapsis: 691.223 km

RAAN: 263.0322 deg

Eccentricy: 0.00943306

Argument of periapsis: 291.5765 deg

Mean anomaly: 67.5404 deg

Mean motion: 14.39987051 rev/day

Mean motion (dot): 0.00009262 rev/day2

B* drag term: 0.0027862561 1/REarth

Two-line elements (TLE)

Creation date: Dec. 12, 2025, 10:14 a.m.

Reference frame: TEME

Reference center: EARTH

Epoch: Dec. 12, 2025, 5:22 a.m. UTC

TLE line 0: 0 CZ-6A DEB

TLE line 1: 1 61141U 24140QK 25346.22408791 .00009262 00000-0 27863-2 0 9994

TLE line 2: 2 61141 88.4713 263.0322 0094331 291.5765 67.5404 14.39987051 68501

Live tracking on map

Real-time ground track for satellite CZ-6A DEB.

In-orbit conjunctions

A list of the most updated potential collisions computed for object CZ-6A DEB.

Target Orbit TCA Probability of collision Miss distance Type
COSMOS 1603 LEO 2025-05-29 22:48:11 0.0002205947 449.0 (m) PAYLOAD
DMSP 5D-2 F13 (USA 109) SSO 2025-04-19 11:22:38 0.0002441285 587.0 (m) PAYLOAD
DMSP 5D-2 F13 DEB SSO 2025-03-05 00:20:29 0.0002004602 289.0 (m) DEBRIS
SL-12 DEB HEO 2025-02-10 15:01:54 0.0001429253 121.0 (m) DEBRIS
RIGIDSPHERE 2 (LCS 4) LEO 2025-01-01 19:53:27 0.0002982025 359.0 (m) PAYLOAD

Associated space launch

18 Low Earth Orbit communication satellites with Ku, Q and V band payloads for the G60 constellation operated by Shanghai Spacecom Satellite Technology (SSST) with funding backed by the Shanghai local government. Initial constellation will consist of 1296 satellites by 2027 with long term plans to expand it to 12000 satellites.

CZ-6A DEB was lifted into orbit during the mission ‘Long March 6A | G60 Polar Group 01’, on board a Long March 6A space rocket.

The launch took place on Aug. 6, 2024, 6:42 a.m. from Launch Complex 9A.

For more information about the launch, click the button.

Launch to space Long March 6A | G60 Polar Group 01
Long March 6A | G60 Polar Group 01

Agency: N/A

Status: Launch Successful

Launch date: Aug. 6, 2024, 6:42 a.m. UTC

Rocket: Long March 6A

Launch pad: Launch Complex 9A

Location: Taiyuan Satellite Launch Center, People's Republic of China

...

Latest news about this satellite

News about space launch
Brightness of first Chinese broadband constellation satellites alarms astronomers

The first satellites of a Chinese broadband constellation are significantly brighter than those of Western systems, posing a new challenge for astronomers.

News about space launch
Chinese rocket stage breaks up into cloud of more than 700 pieces of space debris

HELSINKI — A Chinese Long March 6A rocket’s upper stage has fragmented into a cloud of over 700 pieces of space debris, adding to concerns about long-term orbital safety. China […]

News about space launch
China's Thousand Sails Megaconstellation Kicks Off with Dangerous Debris Field

China's Thousand Sails Megaconstellation Kicks Off with Dangerous Debris Field


Newsletter sign-up

Weekly statistics, charts and insights to help you stay on top of the space industry.